Time,TemperatureF,DewpointF,PressureIn,WindDirection,WindDirectionDegrees,WindSpeedMPH,WindSpeedGustMPH,Humidity,HourlyPrecipIn,Conditions,Clouds,dailyrainin,SoftwareType,DateUTC
2013-06-10 00:02:00,54.0,41.0,30.66,West,270,0.0,0.0,62,-99.99,,,-99.99,,2013-06-10 07:02:00,
2013-06-10 00:11:00,54.0,41.0,30.66,West,270,0.0,0.0,62,-99.99,,,-99.99,,2013-06-10 07:11:00,
2013-06-10 00:22:00,53.0,41.0,30.66,West,270,0.0,0.0,63,-99.99,,,-99.99,,2013-06-10 07:22:00,
2013-06-10 00:32:00,53.0,42.0,30.66,West,270,0.0,0.0,65,-99.99,,,-99.99,,2013-06-10 07:32:00,
2013-06-10 00:42:00,53.0,42.0,30.66,West,270,0.0,0.0,65,-99.99,,,-99.99,,2013-06-10 07:42:00,
2013-06-10 00:52:00,53.0,42.0,30.66,West,270,0.0,0.0,66,-99.99,,,-99.99,,2013-06-10 07:52:00,
2013-06-10 01:02:00,53.0,42.0,30.66,West,270,0.0,0.0,65,-99.99,,,-99.99,,2013-06-10 08:02:00,
2013-06-10 01:12:00,53.0,42.0,30.66,West,270,0.0,0.0,65,-99.99,,,-99.99,,2013-06-10 08:12:00,
2013-06-10 01:21:00,53.0,42.0,30.66,West,270,0.0,0.0,65,-99.99,,,-99.99,,2013-06-10 08:21:00,
2013-06-10 01:32:00,53.0,42.0,30.66,West,270,0.0,0.0,65,-99.99,,,-99.99,,2013-06-10 08:32:00,
2013-06-10 01:42:00,53.0,42.0,30.66,West,270,0.0,0.0,65,-99.99,,,-99.99,,2013-06-10 08:42:00,
2013-06-10 01:52:00,53.0,42.0,30.66,West,270,0.0,0.0,65,-99.99,,,-99.99,,2013-06-10 08:52:00,
2013-06-10 02:02:00,53.0,42.0,30.65,West,270,0.0,0.0,65,-99.99,,,-99.99,,2013-06-10 09:02:00,
2013-06-10 02:11:00,53.0,42.0,30.65,West,270,0.0,0.0,65,-99.99,,,-99.99,,2013-06-10 09:11:00,
2013-06-10 02:22:00,53.0,42.0,30.65,West,270,0.0,0.0,65,-99.99,,,-99.99,,2013-06-10 09:22:00,
2013-06-10 02:32:00,53.0,42.0,30.65,West,270,0.0,0.0,66,-99.99,,,-99.99,,2013-06-10 09:32:00,
2013-06-10 02:42:00,53.0,42.0,30.65,West,270,0.0,0.0,66,-99.99,,,-99.99,,2013-06-10 09:42:00,
2013-06-10 02:53:00,53.0,42.0,30.66,West,270,0.0,0.0,65,-99.99,,,-99.99,,2013-06-10 09:53:00,
2013-06-10 03:02:00,52.0,41.0,30.65,West,270,0.0,0.0,65,-99.99,,,-99.99,,2013-06-10 10:02:00,
2013-06-10 03:12:00,52.0,41.0,30.65,West,270,0.0,0.0,65,-99.99,,,-99.99,,2013-06-10 10:12:00,
2013-06-10 03:22:00,52.0,41.0,30.64,West,270,0.0,0.0,66,-99.99,,,-99.99,,2013-06-10 10:22:00,
2013-06-10 03:33:00,52.0,41.0,30.64,West,270,0.0,0.0,66,-99.99,,,-99.99,,2013-06-10 10:33:00,
2013-06-10 03:42:00,52.0,41.0,30.64,West,270,0.0,0.0,66,-99.99,,,-99.99,,2013-06-10 10:42:00,
2013-06-10 03:52:00,52.0,41.0,30.64,West,270,0.0,0.0,65,-99.99,,,-99.99,,2013-06-10 10:52:00,
2013-06-10 04:02:00,52.0,42.0,30.63,West,270,0.0,0.0,68,-99.99,,,-99.99,,2013-06-10 11:02:00,
2013-06-10 04:12:00,52.0,42.0,30.63,West,270,0.0,0.0,68,-99.99,,,-99.99,,2013-06-10 11:12:00,
2013-06-10 04:22:00,51.0,41.0,30.63,West,270,0.0,0.0,68,-99.99,,,-99.99,,2013-06-10 11:22:00,
2013-06-10 04:32:00,51.0,41.0,30.62,West,270,0.0,0.0,68,-99.99,,,-99.99,,2013-06-10 11:32:00,
2013-06-10 04:42:00,51.0,41.0,30.62,West,270,0.0,0.0,68,-99.99,,,-99.99,,2013-06-10 11:42:00,
2013-06-10 04:52:00,50.0,40.0,30.62,West,270,0.0,0.0,68,-99.99,,,-99.99,,2013-06-10 11:52:00,
2013-06-10 05:02:00,50.0,41.0,30.62,West,270,0.0,0.0,71,-99.99,,,-99.99,,2013-06-10 12:02:00,
2013-06-10 05:12:00,50.0,41.0,30.62,West,270,0.0,0.0,71,-99.99,,,-99.99,,2013-06-10 12:12:00,
2013-06-10 05:22:00,50.0,41.0,30.62,West,270,0.0,0.0,71,-99.99,,,-99.99,,2013-06-10 12:22:00,
2013-06-10 05:32:00,50.0,41.0,30.62,West,270,0.0,0.0,72,-99.99,,,-99.99,,2013-06-10 12:32:00,
2013-06-10 05:42:00,50.0,41.0,30.62,West,270,0.0,0.0,72,-99.99,,,-99.99,,2013-06-10 12:42:00,
2013-06-10 05:52:00,50.0,41.0,30.62,West,270,0.0,0.0,72,-99.99,,,-99.99,,2013-06-10 12:52:00,
2013-06-10 06:02:00,51.0,42.0,30.62,West,270,0.0,0.0,72,-99.99,,,-99.99,,2013-06-10 13:02:00,
2013-06-10 06:11:00,51.0,42.0,30.62,West,270,0.0,0.0,72,-99.99,,,-99.99,,2013-06-10 13:11:00,
2013-06-10 06:22:00,51.0,42.0,30.62,West,270,0.0,0.0,72,-99.99,,,-99.99,,2013-06-10 13:22:00,
2013-06-10 06:32:00,54.0,44.0,30.62,West,270,0.0,0.0,68,-99.99,,,-99.99,,2013-06-10 13:32:00,
2013-06-10 06:41:00,54.0,44.0,30.62,West,270,0.0,0.0,68,-99.99,,,-99.99,,2013-06-10 13:41:00,
2013-06-10 06:52:00,55.0,44.0,30.62,West,270,0.0,0.0,66,-99.99,,,-99.99,,2013-06-10 13:52:00,
2013-06-10 07:02:00,56.0,44.0,30.61,West,270,0.0,0.0,64,-99.99,,,-99.99,,2013-06-10 14:02:00,
2013-06-10 07:11:00,57.0,46.0,30.62,West,270,0.0,0.0,66,-99.99,,,-99.99,,2013-06-10 14:11:00,
2013-06-10 07:32:00,58.0,45.0,30.62,West,270,0.0,0.0,63,-99.99,,,-99.99,,2013-06-10 14:32:00,
2013-06-10 07:42:00,58.0,45.0,30.62,West,270,0.0,0.0,63,-99.99,,,-99.99,,2013-06-10 14:42:00,
2013-06-10 07:52:00,58.0,45.0,30.62,West,270,0.0,0.0,61,-99.99,,,-99.99,,2013-06-10 14:52:00,
2013-06-10 08:02:00,59.0,47.0,30.62,West,270,0.0,0.0,65,-99.99,,,-99.99,,2013-06-10 15:02:00,
2013-06-10 08:32:00,62.0,47.0,30.61,West,270,0.0,0.0,58,-99.99,,,-99.99,,2013-06-10 15:32:00,
2013-06-10 08:43:00,62.0,46.0,30.62,West,270,0.0,0.0,56,-99.99,,,-99.99,,2013-06-10 15:43:00,
2013-06-10 08:53:00,62.0,46.0,30.62,West,270,0.0,0.0,56,-99.99,,,-99.99,,2013-06-10 15:53:00,
2013-06-10 09:03:00,61.0,46.0,30.62,West,270,0.0,0.0,57,-99.99,,,-99.99,,2013-06-10 16:03:00,
2013-06-10 09:12:00,60.0,45.0,30.62,West,270,0.0,0.0,57,-99.99,,,-99.99,,2013-06-10 16:12:00,
2013-06-10 09:22:00,60.0,45.0,30.62,West,270,0.0,0.0,57,-99.99,,,-99.99,,2013-06-10 16:22:00,
2013-06-10 09:33:00,60.0,45.0,30.62,West,270,0.0,0.0,58,-99.99,,,-99.99,,2013-06-10 16:33:00,
2013-06-10 09:42:00,59.0,44.0,30.62,West,270,0.0,0.0,57,-99.99,,,-99.99,,2013-06-10 16:42:00,
2013-06-10 09:52:00,59.0,44.0,30.62,West,270,0.0,0.0,57,-99.99,,,-99.99,,2013-06-10 16:52:00,
2013-06-10 10:03:00,59.0,44.0,30.61,West,270,0.0,0.0,58,-99.99,,,-99.99,,2013-06-10 17:03:00,
2013-06-10 10:14:00,59.0,44.0,30.61,West,270,0.0,0.0,57,-99.99,,,-99.99,,2013-06-10 17:14:00,
2013-06-10 10:26:00,59.0,44.0,30.61,West,270,0.0,0.0,57,-99.99,,,-99.99,,2013-06-10 17:26:00,
2013-06-10 10:38:00,60.0,45.0,30.60,West,270,0.0,0.0,57,-99.99,,,-99.99,,2013-06-10 17:38:00,
2013-06-10 10:48:00,61.0,46.0,30.61,West,270,0.0,0.0,57,-99.99,,,-99.99,,2013-06-10 17:48:00,
2013-06-10 10:57:00,61.0,46.0,30.61,West,270,0.0,0.0,57,-99.99,,,-99.99,,2013-06-10 17:57:00,
2013-06-10 11:07:00,65.0,47.0,30.60,West,270,0.0,0.0,53,-99.99,,,-99.99,,2013-06-10 18:07:00,
2013-06-10 11:34:00,70.0,49.0,30.60,West,270,0.0,0.0,48,-99.99,,,-99.99,,2013-06-10 18:34:00,
2013-06-10 11:47:00,70.0,49.0,30.60,West,270,0.0,0.0,48,-99.99,,,-99.99,,2013-06-10 18:47:00,
2013-06-10 11:55:00,70.0,48.0,30.61,West,270,0.0,0.0,46,-99.99,,,-99.99,,2013-06-10 18:55:00,
2013-06-10 12:02:00,70.0,48.0,30.60,West,270,0.0,0.0,46,-99.99,,,-99.99,,2013-06-10 19:02:00,
2013-06-10 12:22:00,70.0,48.0,30.59,West,270,0.0,0.0,45,-99.99,,,-99.99,,2013-06-10 19:22:00,
2013-06-10 12:42:00,71.0,48.0,30.59,West,270,0.0,0.0,44,-99.99,,,-99.99,,2013-06-10 19:42:00,
2013-06-10 12:52:00,71.0,48.0,30.59,West,270,0.0,0.0,44,-99.99,,,-99.99,,2013-06-10 19:52:00,
2013-06-10 13:02:00,72.0,49.0,30.60,West,270,0.0,0.0,44,-99.99,,,-99.99,,2013-06-10 20:02:00,
2013-06-10 13:22:00,72.0,48.0,30.60,West,270,0.0,0.0,42,-99.99,,,-99.99,,2013-06-10 20:22:00,
2013-06-10 13:32:00,73.0,47.0,30.59,West,270,0.0,0.0,40,-99.99,,,-99.99,,2013-06-10 20:32:00,
2013-06-10 13:42:00,73.0,47.0,30.59,West,270,0.0,0.0,40,-99.99,,,-99.99,,2013-06-10 20:42:00,
2013-06-10 13:52:00,73.0,49.0,30.59,West,270,0.0,0.0,42,-99.99,,,-99.99,,2013-06-10 20:52:00,
2013-06-10 14:02:00,73.0,47.0,30.58,West,270,0.0,0.0,40,-99.99,,,-99.99,,2013-06-10 21:02:00,
2013-06-10 14:33:00,73.0,47.0,30.58,West,270,0.0,0.0,40,-99.99,,,-99.99,,2013-06-10 21:33:00,
2013-06-10 14:43:00,73.0,47.0,30.58,West,270,0.0,0.0,40,-99.99,,,-99.99,,2013-06-10 21:43:00,
2013-06-10 14:53:00,73.0,47.0,30.58,West,270,0.0,0.0,40,-99.99,,,-99.99,,2013-06-10 21:53:00,
2013-06-10 15:02:00,73.0,47.0,30.58,West,270,0.0,0.0,39,-99.99,,,-99.99,,2013-06-10 22:02:00,
2013-06-10 15:33:00,75.0,47.0,30.58,West,270,0.0,0.0,37,-99.99,,,-99.99,,2013-06-10 22:33:00,
2013-06-10 15:42:00,75.0,47.0,30.58,West,270,0.0,0.0,37,-99.99,,,-99.99,,2013-06-10 22:42:00,
2013-06-10 15:52:00,75.0,47.0,30.58,West,270,0.0,0.0,37,-99.99,,,-99.99,,2013-06-10 22:52:00,
2013-06-10 16:02:00,76.0,47.0,30.57,West,270,0.0,0.0,36,-99.99,,,-99.99,,2013-06-10 23:02:00,
2013-06-10 16:11:00,76.0,46.0,30.57,West,270,0.0,0.0,34,-99.99,,,-99.99,,2013-06-10 23:11:00,
2013-06-10 16:32:00,75.0,46.0,30.57,West,270,0.0,0.0,36,-99.99,,,-99.99,,2013-06-10 23:32:00,
2013-06-10 16:42:00,75.0,45.0,30.56,West,270,0.0,0.0,35,-99.99,,,-99.99,,2013-06-10 23:42:00,
2013-06-10 16:52:00,75.0,45.0,30.56,West,270,0.0,0.0,35,-99.99,,,-99.99,,2013-06-10 23:52:00,
2013-06-10 17:02:00,76.0,46.0,30.56,West,270,0.0,0.0,34,-99.99,,,-99.99,,2013-06-11 00:02:00,
2013-06-10 17:11:00,75.0,45.0,30.56,West,270,0.0,0.0,34,-99.99,,,-99.99,,2013-06-11 00:11:00,
2013-06-10 17:21:00,75.0,45.0,30.56,West,270,0.0,0.0,34,-99.99,,,-99.99,,2013-06-11 00:21:00,
2013-06-10 17:32:00,75.0,45.0,30.56,West,270,0.0,0.0,35,-99.99,,,-99.99,,2013-06-11 00:32:00,
2013-06-10 17:42:00,75.0,45.0,30.56,West,270,0.0,0.0,35,-99.99,,,-99.99,,2013-06-11 00:42:00,
2013-06-10 17:51:00,75.0,45.0,30.56,West,270,0.0,0.0,35,-99.99,,,-99.99,,2013-06-11 00:51:00,
2013-06-10 18:02:00,75.0,45.0,30.55,West,270,0.0,0.0,35,-99.99,,,-99.99,,2013-06-11 01:02:00,
2013-06-10 18:11:00,74.0,45.0,30.55,West,270,0.0,0.0,35,-99.99,,,-99.99,,2013-06-11 01:11:00,
2013-06-10 18:22:00,74.0,45.0,30.55,West,270,0.0,0.0,35,-99.99,,,-99.99,,2013-06-11 01:22:00,
2013-06-10 18:32:00,72.0,44.0,30.54,West,270,0.0,0.0,37,-99.99,,,-99.99,,2013-06-11 01:32:00,
2013-06-10 18:42:00,72.0,44.0,30.54,West,270,0.0,0.0,37,-99.99,,,-99.99,,2013-06-11 01:42:00,
2013-06-10 18:52:00,72.0,44.0,30.54,West,270,0.0,0.0,37,-99.99,,,-99.99,,2013-06-11 01:52:00,
2013-06-10 19:02:00,72.0,44.0,30.53,West,270,0.0,0.0,37,-99.99,,,-99.99,,2013-06-11 02:02:00,
2013-06-10 19:11:00,72.0,44.0,30.53,West,270,0.0,0.0,37,-99.99,,,-99.99,,2013-06-11 02:11:00,
2013-06-10 19:21:00,72.0,44.0,30.53,West,270,0.0,0.0,37,-99.99,,,-99.99,,2013-06-11 02:21:00,
2013-06-10 19:31:00,73.0,45.0,30.53,West,270,0.0,0.0,37,-99.99,,,-99.99,,2013-06-11 02:31:00,
2013-06-10 19:42:00,73.0,44.0,30.53,West,270,0.0,0.0,36,-99.99,,,-99.99,,2013-06-11 02:42:00,
2013-06-10 19:52:00,73.0,44.0,30.53,West,270,0.0,0.0,36,-99.99,,,-99.99,,2013-06-11 02:52:00,
2013-06-10 20:01:00,71.0,44.0,30.53,West,270,0.0,0.0,38,-99.99,,,-99.99,,2013-06-11 03:01:00,
2013-06-10 20:12:00,70.0,44.0,30.53,West,270,0.0,0.0,39,-99.99,,,-99.99,,2013-06-11 03:12:00,
2013-06-10 20:22:00,70.0,44.0,30.53,West,270,0.0,0.0,39,-99.99,,,-99.99,,2013-06-11 03:22:00,
2013-06-10 20:32:00,67.0,43.0,30.53,West,270,0.0,0.0,42,-99.99,,,-99.99,,2013-06-11 03:32:00,
2013-06-10 20:42:00,65.0,42.0,30.53,West,270,0.0,0.0,43,-99.99,,,-99.99,,2013-06-11 03:42:00,
2013-06-10 20:53:00,65.0,42.0,30.53,West,270,0.0,0.0,43,-99.99,,,-99.99,,2013-06-11 03:53:00,
2013-06-10 21:02:00,63.0,42.0,30.53,West,270,0.0,0.0,47,-99.99,,,-99.99,,2013-06-11 04:02:00,
2013-06-10 21:12:00,63.0,44.0,30.53,West,270,0.0,0.0,49,-99.99,,,-99.99,,2013-06-11 04:12:00,
2013-06-10 21:22:00,63.0,44.0,30.53,West,270,0.0,0.0,49,-99.99,,,-99.99,,2013-06-11 04:22:00,
2013-06-10 21:33:00,61.0,43.0,30.54,West,270,0.0,0.0,51,-99.99,,,-99.99,,2013-06-11 04:33:00,
2013-06-10 21:42:00,61.0,43.0,30.54,West,270,0.0,0.0,51,-99.99,,,-99.99,,2013-06-11 04:42:00,
2013-06-10 21:52:00,61.0,43.0,30.55,West,270,0.0,0.0,52,-99.99,,,-99.99,,2013-06-11 04:52:00,
2013-06-10 22:02:00,59.0,42.0,30.55,West,270,0.0,0.0,53,-99.99,,,-99.99,,2013-06-11 05:02:00,
2013-06-10 22:11:00,59.0,42.0,30.55,West,270,0.0,0.0,53,-99.99,,,-99.99,,2013-06-11 05:11:00,
2013-06-10 22:22:00,59.0,43.0,30.56,West,270,0.0,0.0,55,-99.99,,,-99.99,,2013-06-11 05:22:00,
2013-06-10 22:31:00,58.0,42.0,30.56,West,270,0.0,0.0,55,-99.99,,,-99.99,,2013-06-11 05:31:00,
2013-06-10 22:42:00,58.0,42.0,30.56,West,270,0.0,0.0,55,-99.99,,,-99.99,,2013-06-11 05:42:00,
2013-06-10 22:52:00,58.0,42.0,30.57,West,270,0.0,0.0,56,-99.99,,,-99.99,,2013-06-11 05:52:00,
2013-06-10 23:02:00,57.0,42.0,30.57,West,270,0.0,0.0,57,-99.99,,,-99.99,,2013-06-11 06:02:00,
2013-06-10 23:12:00,57.0,42.0,30.57,West,270,0.0,0.0,57,-99.99,,,-99.99,,2013-06-11 06:12:00,
2013-06-10 23:21:00,57.0,43.0,30.58,West,270,0.0,0.0,59,-99.99,,,-99.99,,2013-06-11 06:21:00,
2013-06-10 23:31:00,58.0,43.0,30.57,West,270,0.0,0.0,58,-99.99,,,-99.99,,2013-06-11 06:31:00,
2013-06-10 23:42:00,58.0,43.0,30.57,West,270,0.0,0.0,58,-99.99,,,-99.99,,2013-06-11 06:42:00,
2013-06-10 23:52:00,58.0,43.0,30.57,West,270,0.0,0.0,58,-99.99,,,-99.99,,2013-06-11 06:52:00,